Date String (YYYY-MM-DD hh:mm:ss) UTC,Instrument flags,Ambient pressure (hPa),Sample flow (lpm),Bypass flow (lpm),Sample temperature (°C),Ambient temperature (°C),ASC tube jacket temperature (°C),LED temperature (°C),Box temperature (°C),Sample RH (%),Span deviation,Mass concentration (μg/m³),Mass concentration (μg/m³),Mass concentration (μg/m³)
DateTimeUTC,F1_M11,P_M11,Q1_M11,Q2_M11,T1_M11,T2_M11,T3_M11,T4_M11,T5_M11,U1_M11,ZSPAN_M11,X0_M11,X2_M11,X1_M11
2022-12-30 18:00:00,,0818.6,5.00,0.00,23.7,22.7,00.0,32.4,25.5,05.7,0000.0,0002.26,0001.05,0000.68
2022-12-30 18:01:00,,0818.7,5.05,0.00,23.7,22.7,00.0,32.4,25.5,05.5,0000.0,0002.26,0001.05,0000.67
2022-12-30 18:02:00,,0818.7,4.98,0.00,23.8,22.7,00.0,32.4,25.5,06.6,0000.0,0002.36,0001.10,0000.68
2022-12-30 18:03:00,,0818.6,4.96,0.00,23.8,22.7,00.0,32.4,25.5,07.8,0000.0,0002.45,0001.18,0000.71
2022-12-30 18:04:00,,0818.5,4.99,0.00,23.8,22.7,00.0,32.4,25.5,07.7,0000.0,0002.58,0001.23,0000.75
2022-12-30 18:05:00,,0818.5,5.06,0.00,23.8,22.7,00.0,32.5,25.5,07.8,0000.0,0002.72,0001.28,0000.78
2022-12-30 18:06:00,,0818.5,5.02,0.00,23.8,22.7,00.0,32.5,25.6,07.9,0000.0,0002.70,0001.34,0000.81
2022-12-30 18:07:00,,0818.4,4.97,0.00,23.8,22.7,00.0,32.5,25.6,08.1,0000.0,0003.69,0001.43,0000.86
2022-12-30 18:08:00,,0818.4,4.99,0.00,23.8,22.7,00.0,32.5,25.6,08.2,0000.0,0004.52,0001.53,0000.89
2022-12-30 18:09:00,,0818.3,4.97,0.00,23.8,22.8,00.0,32.5,25.6,08.5,0000.0,0005.63,0001.65,0000.94
2022-12-30 18:10:00,,0818.3,4.97,0.00,23.9,22.8,00.0,32.5,25.6,08.6,0000.0,0007.32,0001.74,0001.01
2022-12-30 18:11:00,,0818.3,5.06,0.00,23.9,22.8,00.0,32.5,25.6,08.7,0000.0,0007.81,0001.85,0001.07
2022-12-30 18:12:00,,0818.2,5.03,0.00,23.9,22.8,00.0,32.6,25.6,08.4,0000.0,0007.97,0001.96,0001.13
2022-12-30 18:13:00,,0818.2,4.99,0.00,23.9,22.8,00.0,32.6,25.6,07.6,0000.0,0007.98,0001.97,0001.15
2022-12-30 18:14:00,,0818.2,4.98,0.00,23.9,22.8,00.0,32.6,25.6,07.2,0000.0,0007.95,0001.89,0001.12
2022-12-30 18:15:00,,0818.2,5.00,0.00,23.9,22.8,00.0,32.6,25.7,06.9,0000.0,0008.15,0001.80,0001.07
2022-12-30 18:16:00,,0818.2,5.03,0.00,23.9,22.8,00.0,32.6,25.7,07.0,0000.0,0008.01,0001.72,0001.04
2022-12-30 18:17:00,,0818.2,5.02,0.00,23.9,22.8,00.0,32.6,25.7,07.2,0000.0,0007.91,0001.61,0001.00
2022-12-30 18:18:00,,0818.2,4.98,0.00,23.9,22.8,00.0,32.6,25.6,07.9,0000.0,0007.47,0001.57,0000.96
2022-12-30 18:19:00,,0818.2,4.99,0.00,23.9,22.8,00.0,32.7,25.6,07.9,0000.0,0006.85,0001.50,0000.93
2022-12-30 18:20:00,,0818.1,4.97,0.00,23.9,22.8,00.0,32.7,25.6,07.6,0000.0,0006.10,0001.36,0000.88
2022-12-30 18:21:00,,0818.0,5.05,0.00,23.9,22.8,00.0,32.7,25.6,07.3,0000.0,0003.85,0001.18,0000.79
2022-12-30 18:22:00,,0818.0,5.00,0.00,23.9,22.8,00.0,32.7,25.6,06.9,0000.0,0002.74,0000.99,0000.71
2022-12-30 18:23:00,,0818.0,4.97,0.00,24.0,22.8,00.0,32.7,25.6,06.9,0000.0,0002.05,0000.84,0000.64
2022-12-30 18:24:00,,0818.0,4.97,0.00,24.0,22.8,00.0,32.7,25.6,06.9,0000.0,0001.94,0000.79,0000.61
2022-12-30 18:25:00,,0818.0,5.01,0.00,24.0,22.8,00.0,32.7,25.7,06.5,0000.0,0001.92,0000.78,0000.60
2022-12-30 18:26:00,,0818.0,5.03,0.00,24.0,22.8,00.0,32.7,25.7,06.4,0000.0,0001.40,0000.77,0000.59
2022-12-30 18:27:00,,0818.0,5.01,0.00,24.0,22.8,00.0,32.7,25.7,06.4,0000.0,0001.27,0000.77,0000.59
2022-12-30 18:28:00,,0818.0,4.99,0.00,24.0,22.8,00.0,32.7,25.7,07.5,0000.0,0001.32,0000.79,0000.60
2022-12-30 18:29:00,,0818.0,4.98,0.00,24.0,22.8,00.0,32.8,25.7,08.0,0000.0,0001.45,0000.82,0000.61
2022-12-30 18:30:00,,0818.0,5.00,0.00,24.0,22.8,00.0,32.8,25.7,08.2,0000.0,0001.58,0000.84,0000.61
2022-12-30 18:31:00,,0818.0,5.00,0.00,24.0,22.9,00.0,32.8,25.8,08.0,0000.0,0001.69,0000.88,0000.63
2022-12-30 18:32:00,,0818.0,4.99,0.00,24.0,22.9,00.0,32.8,25.7,08.2,0000.0,0001.88,0000.90,0000.65
2022-12-30 18:33:00,,0818.0,5.00,0.00,24.1,22.9,00.0,32.8,25.7,08.0,0000.0,0002.39,0000.96,0000.67
2022-12-30 18:34:00,,0817.9,4.97,0.00,24.1,22.9,00.0,32.8,25.7,07.8,0000.0,0002.66,0001.00,0000.69
2022-12-30 18:35:00,,0818.0,5.03,0.00,24.1,22.9,00.0,32.8,25.8,08.3,0000.0,0003.58,0001.08,0000.72
2022-12-30 18:36:00,,0817.9,5.00,0.00,24.1,22.9,00.0,32.8,25.8,08.2,0000.0,0003.71,0001.14,0000.75
2022-12-30 18:37:00,,0817.9,4.98,0.00,24.1,22.9,00.0,32.8,25.8,07.7,0000.0,0003.84,0001.20,0000.78
2022-12-30 18:38:00,,0817.9,4.97,0.00,24.1,22.9,00.0,32.8,25.7,07.4,0000.0,0003.79,0001.21,0000.80
2022-12-30 18:39:00,,0817.8,4.99,0.00,24.1,22.9,00.0,32.8,25.7,07.9,0000.0,0003.75,0001.21,0000.81
2022-12-30 18:40:00,,0817.8,5.08,0.00,24.1,22.8,00.0,32.9,25.8,08.2,0000.0,0003.66,0001.22,0000.82
2022-12-30 18:41:00,,0817.8,5.00,0.00,24.1,22.8,00.0,32.9,25.8,07.9,0000.0,0003.58,0001.18,0000.81
2022-12-30 18:42:00,,0817.8,4.98,0.00,24.1,22.8,00.0,32.9,25.8,07.4,0000.0,0003.49,0001.12,0000.79
2022-12-30 18:43:00,,0817.8,4.99,0.00,24.1,22.9,00.0,32.9,25.9,07.1,0000.0,0003.23,0001.08,0000.76
2022-12-30 18:44:00,,0817.8,5.06,0.00,24.1,22.9,00.0,32.9,25.8,07.2,0000.0,0002.75,0001.02,0000.73
2022-12-30 18:45:00,,0817.8,5.03,0.00,24.1,22.8,00.0,32.9,25.7,07.2,0000.0,0002.56,0001.00,0000.72
2022-12-30 18:46:00,,0817.7,4.99,0.00,24.1,22.8,00.0,32.9,25.7,06.2,0000.0,0001.67,0000.93,0000.69
2022-12-30 18:47:00,,0817.5,4.97,0.00,24.1,22.8,00.0,32.9,25.7,05.6,0000.0,0001.53,0000.86,0000.65
2022-12-30 18:48:00,,0817.6,4.98,0.00,24.1,22.9,00.0,32.9,25.9,05.4,0000.0,0001.41,0000.79,0000.62
2022-12-30 18:49:00,,0817.5,4.97,0.00,24.1,22.8,00.0,32.9,25.9,05.2,0000.0,0001.58,0000.80,0000.60
2022-12-30 18:50:00,,0817.5,5.01,0.00,24.1,22.7,00.0,32.9,25.9,05.1,0000.0,0001.58,0000.77,0000.56
2022-12-30 18:51:00,,0817.5,5.05,0.00,24.1,22.6,00.0,32.9,25.8,06.0,0000.0,0001.46,0000.70,0000.53
2022-12-30 18:52:00,,0817.5,5.03,0.00,24.1,22.6,00.0,32.9,25.9,08.1,0000.0,0001.32,0000.71,0000.57
2022-12-30 18:53:00,,0817.6,4.97,0.00,24.1,22.6,00.0,32.9,25.8,08.6,0000.0,0001.82,0000.80,0000.65
2022-12-30 18:54:00,,0817.5,5.05,0.00,24.0,22.6,00.0,32.9,25.7,08.3,0000.0,0002.31,0000.88,0000.70
2022-12-30 18:55:00,,0817.5,5.04,0.00,24.0,22.7,00.0,32.9,25.7,08.0,0000.0,0002.55,0000.99,0000.78
2022-12-30 18:56:00,,0817.5,5.01,0.00,24.0,22.7,00.0,32.9,25.7,07.9,0000.0,0003.46,0001.13,0000.85
2022-12-30 18:57:00,,0817.4,4.97,0.00,24.0,22.7,00.0,32.9,25.8,07.1,0000.0,0003.70,0001.21,0000.90
2022-12-30 18:58:00,,0817.3,5.03,0.00,24.0,22.7,00.0,32.9,25.8,07.8,0000.0,0004.00,0001.32,0000.97
2022-12-30 18:59:00,,0817.3,5.03,0.00,24.0,22.7,00.0,32.9,25.9,08.0,0000.0,0004.78,0001.51,0001.09
